Retour au catalogue

SL-8 DEB

ActifLEO
NORAD 14811·DEBRIS·🇷🇺 Russia

Lancé Apr 28, 1982 depuis Plesetsk Cosmodrome

Loading…

Prochains Passages (prochaines 24 heures)

TLE

FraisSource: Space-Track

Époque: Sep 14, 2026, 12:02 UTC

1 14811U 82037D   26257.50204765  .00000816  00000-0  21384-3 0  9992
2 14811  74.0230  78.5890 0016278  70.7541 321.1103 14.50807354319414

Suivez SL-8 DEB en temps réel avec AllMySat

Download on the App Store